When you browse on this site, cookies collect data to enhance your experience and personalize the content and advertising you see.
Visit our Privacy Policy to learn more. By continuing to use the site, you agree to this use of cookies and data.
  • In Deutschland
  • Länderverzeichnis
  • Für 7 Tage
  • Wassertemperatur
  • Wetterkarte
  • Widgets
  • user-avatar
    Anmelden

    Stündliche Wetter Malanje

    Heute, 14 Dezember, Samstag

    Zeit Temperatur Niederschläge Wind Luftdruck Luftfeuchtigkeit
    00:00 +20°C° 0 mm 1 m/S 664 mmHg 94%
    01:00 +20°C° 0 mm 1 m/S 664 mmHg 93%
    02:00 +20°C° 0.1 mm 1 m/S 664 mmHg 95%
    03:00 +20°C° 0.1 mm 1 m/S 664 mmHg 96%
    04:00 +20°C° 0.1 mm 1 m/S 664 mmHg 97%
    05:00 +20°C° 0 mm 1 m/S 664 mmHg 97%
    06:00 +21°C° 0 mm 1 m/S 665 mmHg 96%
    07:00 +21°C° 0 mm 1 m/S 666 mmHg 95%
    08:00 +23°C° 0.2 mm 1 m/S 666 mmHg 90%
    09:00 +24°C° 0.2 mm 1 m/S 666 mmHg 84%
    10:00 +26°C° 0.2 mm 1 m/S 666 mmHg 79%
    11:00 +26°C° 0.9 mm 1 m/S 666 mmHg 78%
    12:00 +27°C° 0.9 mm 1 m/S 665 mmHg 77%
    13:00 +28°C° 0.9 mm 1 m/S 665 mmHg 76%
    14:00 +26°C° 3.3 mm 2 m/S 664 mmHg 82%
    15:00 +24°C° 3.3 mm 2 m/S 663 mmHg 88%
    16:00 +23°C° 3.3 mm 2 m/S 663 mmHg 94%
    17:00 +22°C° 1.6 mm 1 m/S 663 mmHg 95%
    18:00 +22°C° 1.6 mm 1 m/S 664 mmHg 96%
    19:00 +21°C° 1.6 mm 1 m/S 664 mmHg 98%
    20:00 +21°C° 1 mm 1 m/S 665 mmHg 98%
    21:00 +21°C° 1 mm 1 m/S 665 mmHg 98%
    22:00 +20°C° 1 mm 1 m/S 666 mmHg 98%
    23:00 +20°C° 0.2 mm 1 m/S 665 mmHg 98%

    Morgen, 15 Dezember, Sonntag

    Zeit Temperatur Niederschläge Wind Luftdruck Luftfeuchtigkeit
    00:00 +20°C° 0.2 mm 1 m/S 665 mmHg 99%
    01:00 +20°C° 0.2 mm 1 m/S 665 mmHg 99%
    02:00 +20°C° 0.3 mm 1 m/S 665 mmHg 99%
    03:00 +20°C° 0.3 mm 1 m/S 664 mmHg 99%
    04:00 +20°C° 0.3 mm 1 m/S 664 mmHg 98%
    05:00 +21°C° 0.5 mm 1 m/S 665 mmHg 98%
    06:00 +21°C° 0.5 mm 1 m/S 665 mmHg 97%
    07:00 +21°C° 0.5 mm 1 m/S 666 mmHg 97%
    08:00 +21°C° 0.9 mm 1 m/S 666 mmHg 97%
    09:00 +20°C° 0.9 mm 2 m/S 666 mmHg 97%
    10:00 +20°C° 0.9 mm 2 m/S 666 mmHg 97%
    11:00 +21°C° 0.3 mm 2 m/S 666 mmHg 90%
    12:00 +24°C° 0.3 mm 2 m/S 665 mmHg 83%
    13:00 +25°C° 0.3 mm 2 m/S 665 mmHg 77%
    14:00 +25°C° 0 mm 2 m/S 664 mmHg 76%
    15:00 +25°C° 0 mm 2 m/S 664 mmHg 76%
    16:00 +25°C° 0 mm 2 m/S 663 mmHg 76%
    17:00 +24°C° 0 mm 2 m/S 663 mmHg 82%
    18:00 +21°C° 0 mm 2 m/S 663 mmHg 88%
    19:00 +21°C° 0 mm 1 m/S 663 mmHg 94%
    20:00 +20°C° 0.1 mm 1 m/S 664 mmHg 95%
    21:00 +20°C° 0.1 mm 1 m/S 664 mmHg 96%
    22:00 +19°C° 0.1 mm 1 m/S 665 mmHg 97%
    23:00 +19°C° 0.2 mm 1 m/S 664 mmHg 97%

    übermorgen, 16 Dezember, Montag

    Zeit Temperatur Niederschläge Wind Luftdruck Luftfeuchtigkeit
    00:00 +19°C° 0.2 mm 1 m/S 664 mmHg 97%
    01:00 +17°C° 0.2 mm 0 m/S 664 mmHg 97%
    02:00 +19°C° 0.1 mm 1 m/S 664 mmHg 97%
    03:00 +19°C° 0.1 mm 1 m/S 664 mmHg 97%
    04:00 +19°C° 0.1 mm 1 m/S 664 mmHg 97%
    05:00 +19°C° 0 mm 1 m/S 664 mmHg 95%
    06:00 +18°C° 0 mm 0 m/S 665 mmHg 94%
    07:00 +19°C° 0 mm 0 m/S 665 mmHg 93%
    08:00 +20°C° 0.3 mm 0 m/S 666 mmHg 90%
    09:00 +21°C° 0.3 mm 0 m/S 666 mmHg 87%
    10:00 +22°C° 0.3 mm 0 m/S 666 mmHg 84%
    11:00 +22°C° 0.7 mm 0 m/S 666 mmHg 83%
    12:00 +25°C° 0.7 mm 1 m/S 665 mmHg 82%
    13:00 +25°C° 0.7 mm 1 m/S 664 mmHg 81%
    14:00 +25°C° 0.4 mm 1 m/S 664 mmHg 81%
    15:00 +25°C° 0.4 mm 2 m/S 663 mmHg 80%
    16:00 +25°C° 0.4 mm 2 m/S 663 mmHg 80%
    17:00 +24°C° 0.1 mm 2 m/S 663 mmHg 85%
    18:00 +22°C° 0.1 mm 1 m/S 663 mmHg 90%
    19:00 +21°C° 0.1 mm 1 m/S 663 mmHg 95%
    20:00 +21°C° 0 mm 1 m/S 663 mmHg 95%
    21:00 +20°C° 0 mm 1 m/S 664 mmHg 96%
    22:00 +18°C° 0 mm 0 m/S 664 mmHg 96%
    23:00 +18°C° 0.3 mm 0 m/S 664 mmHg 96%

    17 Dezember, Dienstag

    Zeit Temperatur Niederschläge Wind Luftdruck Luftfeuchtigkeit
    00:00 +17°C° 0.3 mm 0 m/S 664 mmHg 97%
    01:00 +17°C° 0.3 mm 0 m/S 663 mmHg 97%
    02:00 +17°C° 0.4 mm 0 m/S 663 mmHg 97%
    03:00 +17°C° 0.4 mm 0 m/S 663 mmHg 97%
    04:00 +17°C° 0.4 mm 0 m/S 663 mmHg 98%
    05:00 +18°C° 0.3 mm 0 m/S 663 mmHg 97%
    06:00 +18°C° 0.3 mm 0 m/S 664 mmHg 96%
    07:00 +19°C° 0.3 mm 0 m/S 665 mmHg 96%
    08:00 +22°C° 0.7 mm 1 m/S 665 mmHg 91%
    09:00 +24°C° 0.7 mm 1 m/S 665 mmHg 86%
    10:00 +25°C° 0.7 mm 1 m/S 666 mmHg 80%
    11:00 +26°C° 1 mm 1 m/S 665 mmHg 80%
    12:00 +26°C° 1 mm 1 m/S 664 mmHg 80%
    13:00 +26°C° 1 mm 1 m/S 664 mmHg 79%
    14:00 +26°C° 0.9 mm 2 m/S 663 mmHg 82%
    15:00 +26°C° 0.9 mm 2 m/S 663 mmHg 85%
    16:00 +25°C° 0.9 mm 2 m/S 662 mmHg 88%
    17:00 +24°C° 0.3 mm 2 m/S 663 mmHg 90%
    18:00 +22°C° 0.3 mm 1 m/S 663 mmHg 93%
    19:00 +21°C° 0.3 mm 1 m/S 663 mmHg 95%
    20:00 +20°C° 0 mm 1 m/S 664 mmHg 96%
    21:00 +20°C° 0 mm 1 m/S 664 mmHg 96%
    22:00 +20°C° 0 mm 1 m/S 664 mmHg 97%
    23:00 +19°C° 0 mm 1 m/S 664 mmHg 97%

    18 Dezember, Mittwoch

    Zeit Temperatur Niederschläge Wind Luftdruck Luftfeuchtigkeit
    00:00 +19°C° 0 mm 1 m/S 663 mmHg 97%
    01:00 +19°C° 0 mm 1 m/S 663 mmHg 97%
    02:00 +19°C° 0 mm 1 m/S 663 mmHg 97%
    03:00 +19°C° 0 mm 1 m/S 663 mmHg 97%
    04:00 +19°C° 0 mm 1 m/S 663 mmHg 98%
    05:00 +19°C° 0 mm 1 m/S 663 mmHg 97%
    06:00 +20°C° 0 mm 1 m/S 664 mmHg 97%
    07:00 +20°C° 0 mm 1 m/S 664 mmHg 97%
    08:00 +21°C° 0 mm 2 m/S 665 mmHg 87%
    09:00 +23°C° 0 mm 2 m/S 665 mmHg 77%
    10:00 +25°C° 0 mm 2 m/S 666 mmHg 68%
    11:00 +26°C° 0 mm 3 m/S 665 mmHg 64%
    12:00 +27°C° 0 mm 3 m/S 665 mmHg 60%
    13:00 +27°C° 0 mm 4 m/S 664 mmHg 56%
    14:00 +27°C° 0 mm 4 m/S 664 mmHg 59%
    15:00 +27°C° 0 mm 4 m/S 663 mmHg 62%
    16:00 +26°C° 0 mm 4 m/S 663 mmHg 65%
    17:00 +24°C° 0 mm 3 m/S 663 mmHg 70%
    18:00 +21°C° 0 mm 2 m/S 663 mmHg 76%
    19:00 +19°C° 0 mm 2 m/S 663 mmHg 82%
    20:00 +19°C° 0 mm 2 m/S 664 mmHg 82%
    21:00 +19°C° 0 mm 2 m/S 664 mmHg 82%
    22:00 +19°C° 0 mm 2 m/S 665 mmHg 81%
    23:00 +19°C° 0 mm 2 m/S 664 mmHg 81%

    19 Dezember, Donnerstag

    Zeit Temperatur Niederschläge Wind Luftdruck Luftfeuchtigkeit
    00:00 +19°C° 0 mm 2 m/S 664 mmHg 81%
    01:00 +19°C° 0 mm 2 m/S 664 mmHg 80%
    02:00 +19°C° 0 mm 2 m/S 664 mmHg 82%
    03:00 +19°C° 0 mm 2 m/S 664 mmHg 83%
    04:00 +19°C° 0 mm 2 m/S 664 mmHg 84%
    05:00 +19°C° 0 mm 2 m/S 664 mmHg 86%
    06:00 +19°C° 0 mm 2 m/S 664 mmHg 88%
    07:00 +19°C° 0 mm 2 m/S 665 mmHg 89%
    08:00 +21°C° 0 mm 3 m/S 665 mmHg 82%
    09:00 +22°C° 0 mm 3 m/S 665 mmHg 74%
    10:00 +25°C° 0 mm 3 m/S 666 mmHg 66%
    11:00 +25°C° 0 mm 3 m/S 665 mmHg 64%
    12:00 +26°C° 0 mm 4 m/S 665 mmHg 62%
    13:00 +27°C° 0 mm 4 m/S 664 mmHg 60%
    14:00 +26°C° 0.1 mm 3 m/S 664 mmHg 64%
    15:00 +26°C° 0.1 mm 3 m/S 663 mmHg 69%
    16:00 +26°C° 0.1 mm 3 m/S 663 mmHg 74%
    17:00 +24°C° 0.1 mm 3 m/S 663 mmHg 79%
    18:00 +21°C° 0.1 mm 2 m/S 663 mmHg 85%
    19:00 +20°C° 0.1 mm 2 m/S 663 mmHg 91%
    20:00 +19°C° 0 mm 2 m/S 664 mmHg 93%
    21:00 +20°C° 0 mm 1 m/S 664 mmHg 95%
    22:00 +19°C° 0 mm 1 m/S 665 mmHg 97%
    23:00 +19°C° 0 mm 1 m/S 665 mmHg 96%
    Mehr zeigen